| time (UTC) | temp F | wind direction | speed MPH | gust MPH | rain 1hr in | rain 24hr in | rain mn in | humidity % | barometer mb |
| 20260506231803 | 72 | 272 | 5.0 | 12.0 | 0.00 | 0.00 | 0.00 | 59 | 1018.0 |
| 20260506230904 | 72 | 258 | 4.0 | 11.0 | 0.00 | 0.00 | 0.00 | 58 | 1018.0 |
| 20260506230003 | 72 | 271 | 5.0 | 13.0 | 0.00 | 0.00 | 0.00 | 59 | 1018.0 |
| 20260506225403 | 72 | 268 | 4.0 | 11.0 | 0.00 | 0.00 | 0.00 | 59 | 1018.0 |
| 20260506224503 | 72 | 266 | 5.0 | 12.0 | 0.00 | 0.00 | 0.00 | 57 | 1018.3 |
| 20260506223818 | 72 | 265 | 5.0 | 12.0 | 0.00 | 0.00 | 0.00 | 58 | 1018.0 |
| 20260506222918 | 73 | 253 | 4.0 | 15.0 | 0.00 | 0.00 | 0.00 | 56 | 1018.3 |
| 20260506221803 | 72 | 274 | 5.0 | 15.0 | 0.00 | 0.00 | 0.00 | 56 | 1018.3 |
| 20260506221118 | 73 | 253 | 5.0 | 15.0 | 0.00 | 0.00 | 0.00 | 55 | 1018.3 |
| 20260506220003 | 74 | 273 | 4.0 | 10.0 | 0.00 | 0.00 | 0.00 | 56 | 1018.7 |
| 20260506215404 | 73 | 269 | 4.0 | 11.0 | 0.00 | 0.00 | 0.00 | 56 | 1018.7 |
| 20260506214503 | 74 | 270 | 4.0 | 11.0 | 0.00 | 0.00 | 0.00 | 55 | 1018.7 |
| 20260506213818 | 73 | 251 | 5.0 | 12.0 | 0.00 | 0.00 | 0.00 | 58 | 1018.7 |
| 20260506212703 | 73 | 210 | 4.0 | 13.0 | 0.00 | 0.00 | 0.00 | 54 | 1018.7 |
| 20260506211803 | 73 | 227 | 5.0 | 16.0 | 0.00 | 0.00 | 0.00 | 56 | 1018.7 |
| 20260506210903 | 73 | 188 | 4.0 | 10.0 | 0.00 | 0.00 | 0.00 | 54 | 1019.0 |
| 20260506210003 | 74 | 237 | 3.0 | 12.0 | 0.00 | 0.00 | 0.00 | 54 | 1019.0 |
| 20260506205617 | 73 | 254 | 4.0 | 12.0 | 0.00 | 0.00 | 0.00 | 54 | 1019.0 |
| 20260506204718 | 74 | 241 | 3.0 | 10.0 | 0.00 | 0.00 | 0.00 | 54 | 1019.0 |
| 20260506203603 | 74 | 249 | 3.0 | 10.0 | 0.00 | 0.00 | 0.00 | 55 | 1019.0 |
| 20260506202703 | 74 | 192 | 4.0 | 10.0 | 0.00 | 0.00 | 0.00 | 55 | 1019.3 |
| 20260506202018 | 73 | 200 | 4.0 | 10.0 | 0.00 | 0.00 | 0.00 | 57 | 1019.3 |
| 20260506200903 | 74 | 171 | 4.0 | 8.0 | 0.00 | 0.00 | 0.00 | 55 | 1019.3 |
| 20260506200003 | 73 | 172 | 4.0 | 9.0 | 0.00 | 0.00 | 0.00 | 55 | 1019.3 |
| 20260506195403 | 73 | 206 | 4.0 | 11.0 | 0.00 | 0.00 | 0.00 | 56 | 1019.7 |
| 20260506194504 | 72 | 137 | 5.0 | 10.0 | 0.00 | 0.00 | 0.00 | 57 | 1019.7 |
| 20260506193603 | 74 | 160 | 3.0 | 10.0 | 0.00 | 0.00 | 0.00 | 55 | 1019.7 |
| 20260506192703 | 72 | 235 | 3.0 | 10.0 | 0.00 | 0.00 | 0.00 | 56 | 1020.0 |
| 20260506191803 | 73 | 102 | 2.0 | 6.0 | 0.00 | 0.00 | 0.00 | 55 | 1020.0 |
| 20260506190904 | 71 | 142 | 4.0 | 10.0 | 0.00 | 0.00 | 0.00 | 55 | 1020.0 |
| 20260506190003 | 72 | 145 | 4.0 | 10.0 | 0.00 | 0.00 | 0.00 | 55 | 1020.0 |
| 20260506185404 | 70 | 137 | 3.0 | 8.0 | 0.00 | 0.00 | 0.00 | 56 | 1020.4 |
| 20260506184503 | 70 | 102 | 3.0 | 8.0 | 0.00 | 0.00 | 0.00 | 57 | 1020.4 |
| 20260506183603 | 71 | 122 | 3.0 | 8.0 | 0.00 | 0.00 | 0.00 | 56 | 1020.4 |
| 20260506182704 | 72 | 164 | 2.0 | 6.0 | 0.00 | 0.00 | 0.00 | 55 | 1020.4 |
| 20260506181803 | 69 | 209 | 2.0 | 6.0 | 0.00 | 0.00 | 0.00 | 58 | 1020.4 |
| 20260506180903 | 70 | 160 | 2.0 | 6.0 | 0.00 | 0.00 | 0.00 | 58 | 1020.7 |
| 20260506180005 | 68 | 113 | 3.0 | 9.0 | 0.00 | 0.00 | 0.00 | 58 | 1020.4 |
| 20260506175403 | 68 | 140 | 4.0 | 9.0 | 0.00 | 0.00 | 0.00 | 60 | 1020.7 |
| 20260506174717 | 68 | 190 | 2.0 | 8.0 | 0.00 | 0.00 | 0.00 | 61 | 1020.7 |
| 20260506173603 | 66 | 190 | 3.0 | 7.0 | 0.00 | 0.00 | 0.00 | 64 | 1021.0 |
| 20260506172703 | 68 | 122 | 3.0 | 6.0 | 0.00 | 0.00 | 0.00 | 62 | 1020.7 |
| 20260506171804 | 66 | 134 | 2.0 | 6.0 | 0.00 | 0.00 | 0.00 | 65 | 1020.7 |
| 20260506170903 | 66 | 296 | 1.0 | 4.0 | 0.00 | 0.00 | 0.00 | 67 | 1020.7 |
| 20260506170003 | 66 | 117 | 3.0 | 7.0 | 0.00 | 0.00 | 0.00 | 67 | 1020.4 |
| 20260506165403 | 68 | 113 | 2.0 | 5.0 | 0.00 | 0.00 | 0.00 | 64 | 1020.7 |
| 20260506164717 | 67 | 113 | 3.0 | 6.0 | 0.00 | 0.00 | 0.00 | 65 | 1020.4 |
| 20260506163603 | 66 | 103 | 2.0 | 7.0 | 0.00 | 0.00 | 0.00 | 67 | 1020.7 |
| 20260506162703 | 66 | 176 | 1.0 | 4.0 | 0.00 | 0.00 | 0.00 | 67 | 1020.7 |
| 20260506161803 | 65 | 145 | 3.0 | 7.0 | 0.00 | 0.00 | 0.00 | 70 | 1020.7 |
| 20260506160903 | 66 | 112 | 3.0 | 6.0 | 0.00 | 0.00 | 0.00 | 69 | 1020.7 |
| 20260506160217 | 64 | 107 | 4.0 | 9.0 | 0.00 | 0.00 | 0.00 | 72 | 1020.7 |
| 20260506155403 | 65 | 103 | 3.0 | 8.0 | 0.00 | 0.00 | 0.00 | 73 | 1020.7 |
| 20260506154503 | 63 | 124 | 3.0 | 8.0 | 0.00 | 0.00 | 0.00 | 76 | 1020.7 |
| 20260506153603 | 62 | 103 | 3.0 | 6.0 | 0.00 | 0.00 | 0.00 | 78 | 1020.7 |
| 20260506152703 | 63 | 126 | 2.0 | 6.0 | 0.00 | 0.00 | 0.00 | 78 | 1021.0 |
| 20260506151803 | 62 | 102 | 3.0 | 6.0 | 0.00 | 0.00 | 0.00 | 79 | 1020.7 |
| 20260506151117 | 61 | 91 | 3.0 | 5.0 | 0.00 | 0.00 | 0.00 | 79 | 1021.0 |
| 20260506150003 | 61 | 70 | 3.0 | 6.0 | 0.00 | 0.00 | 0.00 | 80 | 1020.7 |
| 20260506145403 | 61 | 77 | 3.0 | 6.0 | 0.00 | 0.00 | 0.00 | 79 | 1020.7 |
| 20260506144718 | 61 | 74 | 3.0 | 6.0 | 0.00 | 0.00 | 0.00 | 80 | 1020.7 |
| 20260506143603 | 60 | 63 | 3.0 | 5.0 | 0.00 | 0.00 | 0.00 | 81 | 1020.7 |
| 20260506142703 | 59 | 64 | 3.0 | 6.0 | 0.00 | 0.00 | 0.00 | 82 | 1020.7 |
| 20260506142018 | 59 | 81 | 3.0 | 5.0 | 0.00 | 0.00 | 0.00 | 82 | 1020.7 |
| 20260506140903 | 58 | 73 | 3.0 | 6.0 | 0.00 | 0.00 | 0.00 | 83 | 1020.4 |
| 20260506140216 | 57 | 74 | 3.0 | 6.0 | 0.00 | 0.00 | 0.00 | 83 | 1020.4 |
| 20260506135403 | 57 | 64 | 3.0 | 5.0 | 0.00 | 0.00 | 0.00 | 83 | 1020.0 |
| 20260506134504 | 56 | 39 | 3.0 | 5.0 | 0.00 | 0.00 | 0.00 | 86 | 1020.4 |
| 20260506133603 | 55 | 65 | 2.0 | 4.0 | 0.00 | 0.00 | 0.00 | 88 | 1020.4 |
| 20260506132703 | 54 | 64 | 2.0 | 4.0 | 0.00 | 0.00 | 0.00 | 90 | 1020.4 |
| 20260506131803 | 53 | 35 | 3.0 | 6.0 | 0.00 | 0.00 | 0.00 | 92 | 1020.4 |
| 20260506130903 | 53 | 50 | 2.0 | 5.0 | 0.00 | 0.00 | 0.00 | 93 | 1020.0 |
| 20260506130003 | 53 | 51 | 2.0 | 4.0 | 0.00 | 0.00 | 0.00 | 93 | 1020.0 |
| 20260506125403 | 53 | 56 | 2.0 | 4.0 | 0.00 | 0.00 | 0.00 | 93 | 1020.0 |
| 20260506124503 | 53 | 101 | 2.0 | 4.0 | 0.00 | 0.00 | 0.00 | 94 | 1019.7 |
| 20260506123603 | 53 | 73 | 1.0 | 4.0 | 0.00 | 0.00 | 0.00 | 94 | 1019.3 |
| 20260506122703 | 53 | 95 | 2.0 | 4.0 | 0.00 | 0.00 | 0.00 | 93 | 1019.7 |
| 20260506121803 | 54 | 107 | 1.0 | 4.0 | 0.00 | 0.00 | 0.00 | 92 | 1019.7 |
| 20260506120903 | 54 | 89 | 2.0 | 4.0 | 0.00 | 0.00 | 0.00 | 92 | 1019.7 |
| 20260506120003 | 54 | 101 | 2.0 | 4.0 | 0.00 | 0.00 | 0.00 | 92 | 1019.7 |
| 20260506115403 | 54 | 65 | 2.0 | 4.0 | 0.00 | 0.00 | 0.00 | 91 | 1019.7 |
| 20260506114717 | 54 | 75 | 1.0 | 4.0 | 0.00 | 0.00 | 0.00 | 91 | 1019.7 |
| 20260506113603 | 55 | 84 | 2.0 | 2.0 | 0.00 | 0.00 | 0.00 | 91 | 1019.3 |
| 20260506112703 | 55 | 86 | 2.0 | 4.0 | 0.00 | 0.00 | 0.00 | 90 | 1019.3 |
| 20260506111803 | 56 | 89 | 2.0 | 5.0 | 0.00 | 0.00 | 0.00 | 90 | 1019.3 |
| 20260506111118 | 56 | 90 | 3.0 | 5.0 | 0.00 | 0.00 | 0.00 | 90 | 1019.3 |
| 20260506110003 | 56 | 90 | 2.0 | 4.0 | 0.00 | 0.00 | 0.00 | 90 | 1019.0 |
| 20260506105403 | 56 | 86 | 2.0 | 3.0 | 0.00 | 0.00 | 0.00 | 91 | 1019.3 |
| 20260506104504 | 55 | 97 | 2.0 | 4.0 | 0.00 | 0.00 | 0.00 | 91 | 1019.3 |
| 20260506103603 | 55 | 90 | 2.0 | 3.0 | 0.00 | 0.00 | 0.00 | 90 | 1019.3 |
| 20260506102703 | 56 | 85 | 2.0 | 3.0 | 0.00 | 0.00 | 0.00 | 90 | 1019.3 |
| 20260506102019 | 56 | 78 | 2.0 | 3.0 | 0.00 | 0.00 | 0.00 | 90 | 1019.3 |
| 20260506100903 | 56 | 86 | 2.0 | 3.0 | 0.00 | 0.00 | 0.00 | 89 | 1019.3 |
| 20260506100003 | 56 | 89 | 2.0 | 3.0 | 0.00 | 0.00 | 0.00 | 89 | 1019.3 |
| 20260506095403 | 56 | 83 | 2.0 | 3.0 | 0.00 | 0.00 | 0.00 | 89 | 1019.3 |
| 20260506094503 | 56 | 78 | 2.0 | 3.0 | 0.00 | 0.00 | 0.00 | 89 | 1019.3 |
| 20260506093604 | 56 | 75 | 2.0 | 3.0 | 0.00 | 0.00 | 0.00 | 89 | 1019.7 |
| 20260506092703 | 56 | 69 | 1.0 | 2.0 | 0.00 | 0.00 | 0.00 | 89 | 1019.7 |
| 20260506091803 | 56 | 85 | 2.0 | 3.0 | 0.00 | 0.00 | 0.00 | 89 | 1019.7 |
| 20260506090903 | 56 | 69 | 2.0 | 3.0 | 0.00 | 0.00 | 0.00 | 89 | 1019.7 |
| 20260506090217 | 56 | 70 | 2.0 | 3.0 | 0.00 | 0.00 | 0.00 | 89 | 1019.7 |
| 20260506085403 | 56 | 69 | 2.0 | 3.0 | 0.00 | 0.00 | 0.00 | 89 | 1019.7 |
| 20260506084503 | 57 | 93 | 2.0 | 3.0 | 0.00 | 0.00 | 0.00 | 89 | 1019.7 |
| 20260506083603 | 57 | 89 | 2.0 | 3.0 | 0.00 | 0.00 | 0.00 | 88 | 1019.7 |
| 20260506082703 | 57 | 96 | 2.0 | 3.0 | 0.00 | 0.00 | 0.00 | 88 | 1020.0 |
| 20260506081803 | 57 | 98 | 2.0 | 3.0 | 0.00 | 0.00 | 0.00 | 88 | 1019.7 |
| 20260506080903 | 57 | 101 | 2.0 | 4.0 | 0.00 | 0.00 | 0.00 | 87 | 1020.0 |
| 20260506072703 | 58 | 108 | 3.0 | 4.0 | 0.00 | 0.00 | 0.00 | 82 | 1020.0 |
| 20260506071803 | 58 | 108 | 2.0 | 4.0 | 0.00 | 0.00 | 0.00 | 82 | 1020.0 |
| 20260506070903 | 58 | 99 | 2.0 | 3.0 | 0.00 | 0.00 | 0.00 | 80 | 1019.7 |
| 20260506062017 | 57 | 101 | 1.0 | 2.0 | 0.00 | 0.00 | 0.00 | 82 | 1019.3 |
| 20260506060904 | 57 | 103 | 0.0 | 2.0 | 0.00 | 0.00 | 0.00 | 82 | 1019.3 |
| 20260506060218 | 58 | 77 | 0.0 | 2.0 | 0.00 | 0.00 | 0.00 | 80 | 1019.3 |
| 20260506050903 | 59 | 130 | 0.0 | 2.0 | 0.00 | 0.00 | 0.00 | 77 | 1019.0 |
| 20260506044503 | 60 | 148 | 0.0 | 2.0 | 0.00 | 0.00 | 0.00 | 77 | 1018.7 |
| 20260506043603 | 60 | 146 | 0.0 | 2.0 | 0.00 | 0.00 | 0.00 | 76 | 1018.7 |
| 20260506042703 | 60 | 139 | 0.0 | 2.0 | 0.00 | 0.00 | 0.00 | 76 | 1018.3 |
| 20260506041803 | 60 | 114 | 0.0 | 1.0 | 0.00 | 0.00 | 0.00 | 75 | 1018.3 |
| 20260506040903 | 61 | 313 | 0.0 | 2.0 | 0.00 | 0.00 | 0.00 | 73 | 1018.3 |
| 20260506040003 | 61 | 42 | 0.0 | 2.0 | 0.00 | 0.00 | 0.00 | 72 | 1018.0 |
| 20260506035403 | 61 | 246 | 0.0 | 2.0 | 0.00 | 0.00 | 0.00 | 71 | 1018.0 |
| 20260506034503 | 62 | 267 | 1.0 | 3.0 | 0.00 | 0.00 | 0.00 | 70 | 1018.0 |
| 20260506033603 | 62 | 266 | 1.0 | 3.0 | 0.00 | 0.00 | 0.00 | 70 | 1018.0 |
| 20260506032703 | 62 | 258 | 1.0 | 5.0 | 0.00 | 0.00 | 0.00 | 69 | 1017.6 |
| 20260506031803 | 62 | 265 | 2.0 | 5.0 | 0.00 | 0.00 | 0.00 | 70 | 1017.6 |
| 20260506030903 | 62 | 260 | 1.0 | 4.0 | 0.00 | 0.00 | 0.00 | 69 | 1017.6 |
| 20260506030003 | 63 | 267 | 1.0 | 5.0 | 0.00 | 0.00 | 0.00 | 66 | 1017.6 |
| 20260506025403 | 63 | 273 | 2.0 | 5.0 | 0.00 | 0.00 | 0.00 | 65 | 1017.3 |
| 20260506024503 | 63 | 251 | 1.0 | 4.0 | 0.00 | 0.00 | 0.00 | 62 | 1017.0 |
| 20260506023603 | 64 | 249 | 1.0 | 5.0 | 0.00 | 0.00 | 0.00 | 61 | 1017.0 |
| 20260506022703 | 65 | 255 | 1.0 | 5.0 | 0.00 | 0.00 | 0.00 | 59 | 1016.6 |
| 20260506021803 | 65 | 265 | 2.0 | 4.0 | 0.00 | 0.00 | 0.00 | 60 | 1017.0 |
| 20260506020903 | 65 | 313 | 2.0 | 6.0 | 0.00 | 0.00 | 0.00 | 60 | 1017.0 |
| 20260506020218 | 65 | 283 | 3.0 | 9.0 | 0.00 | 0.00 | 0.00 | 61 | 1016.6 |
| 20260506015404 | 65 | 279 | 3.0 | 9.0 | 0.00 | 0.00 | 0.00 | 57 | 1017.0 |
| 20260506014503 | 66 | 291 | 4.0 | 9.0 | 0.00 | 0.00 | 0.00 | 55 | 1016.6 |
| 20260506013603 | 65 | 277 | 4.0 | 12.0 | 0.00 | 0.00 | 0.00 | 55 | 1016.3 |
| 20260506012703 | 66 | 283 | 4.0 | 10.0 | 0.00 | 0.00 | 0.00 | 56 | 1016.6 |
| 20260506011803 | 67 | 292 | 4.0 | 11.0 | 0.00 | 0.00 | 0.00 | 55 | 1016.6 |
| 20260506011116 | 67 | 274 | 3.0 | 8.0 | 0.00 | 0.00 | 0.00 | 54 | 1016.3 |
| 20260506010003 | 67 | 267 | 3.0 | 10.0 | 0.00 | 0.00 | 0.00 | 55 | 1016.6 |
| 20260506005403 | 67 | 256 | 3.0 | 6.0 | 0.00 | 0.00 | 0.00 | 56 | 1016.3 |
| 20260506004719 | 68 | 273 | 3.0 | 8.0 | 0.00 | 0.00 | 0.00 | 57 | 1016.3 |
| 20260506003603 | 66 | 283 | 3.0 | 8.0 | 0.00 | 0.00 | 0.00 | 58 | 1016.3 |
| 20260506002703 | 66 | 276 | 3.0 | 7.0 | 0.00 | 0.00 | 0.00 | 59 | 1016.3 |
| 20260506001803 | 65 | 275 | 4.0 | 8.0 | 0.00 | 0.00 | 0.00 | 58 | 1016.3 |
| 20260506000903 | 65 | 278 | 3.0 | 9.0 | 0.00 | 0.00 | 0.00 | 55 | 1016.3 |
| 20260506000003 | 65 | 284 | 4.0 | 12.0 | 0.00 | 0.00 | 0.00 | 58 | 1016.3 |
| 20260505235403 | 65 | 281 | 4.0 | 11.0 | 0.00 | 0.00 | 0.00 | 57 | 1016.3 |
| 20260505234503 | 65 | 291 | 4.0 | 11.0 | 0.00 | 0.00 | 0.00 | 56 | 1016.6 |
| 20260505233603 | 66 | 290 | 3.0 | 11.0 | 0.00 | 0.00 | 0.00 | 55 | 1016.6 |
| 20260505232703 | 66 | 280 | 4.0 | 11.0 | 0.00 | 0.00 | 0.00 | 54 | 1016.3 |